Photometre #358[Standard_N] Brussels AOT

File : 20190925_358.hum

25/09/2019,06:29:22,TEMP=15.8,BA=5.68,STAT.h
25/09/2019,06:33:28,TEMP=15.8,BA=5.68,STAT.h
25/09/2019,06:38:17,TEMP=15.8,BA=5.68,STAT.h
25/09/2019,06:44:01,TEMP=15.8,BA=5.64,STAT.h
25/09/2019,06:50:57,TEMP=15.8,BA=5.68,STAT.h
25/09/2019,06:59:32,TEMP=15.8,BA=5.68,STAT.h
25/09/2019,07:10:26,TEMP=15.8,BA=5.68,STAT.h
25/09/2019,07:15:41,TEMP=15.8,BA=5.68,STAT.h
25/09/2019,07:21:35,TEMP=15.8,BA=5.68,STAT.h
25/09/2019,07:28:15,TEMP=15.8,BA=5.68,STAT.h
25/09/2019,07:35:54,TEMP=15.8,BA=5.64,STAT.h
25/09/2019,07:44:45,TEMP=15.8,BA=5.68,STAT.h
25/09/2019,07:55:08,TEMP=15.8,BA=5.68,STAT.h
25/09/2019,08:07:33,TEMP=15.8,BA=5.68,STAT.h
25/09/2019,08:23:07,TEMP=14.5,BA=5.68,STAT.A=Abs.,ExtBa=13.02
25/09/2019,08:35:01,TEMP=14.6,BA=5.64,STAT.F,ExtBa=13.01
25/09/2019,08:50:00,TEMP=14.5,BA=5.64,STAT.D=Abs.,ExtBa=13.02
25/09/2019,09:05:00,TEMP=15.1,BA=5.64,STAT.D=Abs.,ExtBa=13.01
25/09/2019,09:19:58,TEMP=15.8,BA=5.64,STAT.D=Abs.,ExtBa=12.99
25/09/2019,09:21:25,TEMP=15.8,BA=5.52,STAT.b=Abs.
25/09/2019,09:35:01,TEMP=15.7,BA=5.64,STAT.F,ExtBa=13.01
25/09/2019,09:49:59,TEMP=16.0,BA=5.48,STAT.D=Abs.,ExtBa=13.00
25/09/2019,10:04:59,TEMP=16.7,BA=5.64,STAT.D=Abs.,ExtBa=13.01
25/09/2019,10:19:59,TEMP=16.8,BA=5.64,STAT.D=Abs.,ExtBa=13.00
25/09/2019,10:35:05,TEMP=16.6,BA=5.64,STAT.F,ExtBa=12.99
25/09/2019,10:49:58,TEMP=16.2,BA=5.64,STAT.D=Abs.,ExtBa=13.00
25/09/2019,11:04:59,TEMP=17.3,BA=5.64,STAT.D=Abs.,ExtBa=13.00
25/09/2019,11:19:58,TEMP=17.3,BA=5.64,STAT.D=Abs.,ExtBa=13.00
25/09/2019,11:35:03,TEMP=17.5,BA=5.64,STAT.F,ExtBa=12.99
25/09/2019,11:50:00,TEMP=17.1,BA=5.64,STAT.D=Abs.,ExtBa=12.99
25/09/2019,12:04:58,TEMP=16.9,BA=5.64,STAT.D=Abs.,ExtBa=13.00
25/09/2019,12:19:59,TEMP=17.4,BA=5.60,STAT.D=Abs.,ExtBa=12.99
25/09/2019,12:35:03,TEMP=17.6,BA=5.64,STAT.F,ExtBa=12.98
25/09/2019,12:49:58,TEMP=17.5,BA=5.60,STAT.D=Abs.,ExtBa=12.99
25/09/2019,13:04:58,TEMP=17.1,BA=5.64,STAT.D=Abs.,ExtBa=12.99
25/09/2019,13:19:58,TEMP=16.6,BA=5.60,STAT.D=Abs.,ExtBa=12.99
25/09/2019,13:35:00,TEMP=16.5,BA=5.64,STAT.F,ExtBa=13.00
25/09/2019,13:49:58,TEMP=17.2,BA=5.60,STAT.D=Abs.,ExtBa=12.99
25/09/2019,14:04:58,TEMP=17.6,BA=5.64,STAT.D=Abs.,ExtBa=13.00
25/09/2019,14:19:58,TEMP=17.5,BA=5.64,STAT.D=Abs.,ExtBa=12.99
25/09/2019,14:35:01,TEMP=17.1,BA=5.64,STAT.F,ExtBa=12.99
25/09/2019,14:46:53,TEMP=16.6,BA=5.60,STAT.A=Abs.,ExtBa=12.99
25/09/2019,15:02:05,TEMP=16.3,BA=5.64,STAT.A=Abs.,ExtBa=12.99
25/09/2019,15:14:31,TEMP=16.4,BA=5.64,STAT.A=Abs.,ExtBa=12.98
25/09/2019,15:24:54,TEMP=16.5,BA=5.64,STAT.C=Abs.,ExtBa=12.98
25/09/2019,15:33:43,TEMP=16.3,BA=5.64,STAT.A=Abs.,ExtBa=12.98
25/09/2019,15:41:24,TEMP=16.1,BA=5.64,STAT.A=Abs.,ExtBa=12.97
25/09/2019,15:48:02,TEMP=15.8,BA=5.64,STAT.A=Abs.,ExtBa=12.97
25/09/2019,15:53:56,TEMP=15.8,BA=5.56,STAT.A=Abs.,ExtBa=12.86
25/09/2019,15:59:12,TEMP=16.1,BA=5.56,STAT.B=Abs.,ExtBa=12.82
25/09/2019,16:10:06,TEMP=17.2,BA=5.48,STAT.A=Abs.,ExtBa=12.66
25/09/2019,16:18:40,TEMP=17.3,BA=5.48,STAT.A=Abs.,ExtBa=12.76
25/09/2019,16:25:36,TEMP=17.3,BA=5.44,STAT.A=Abs.,ExtBa=12.81
25/09/2019,16:31:20,TEMP=17.1,BA=5.64,STAT.A=Abs.,ExtBa=12.82
25/09/2019,16:36:09,TEMP=17.0,BA=5.64,STAT.A=Abs.,ExtBa=12.82
25/09/2019,16:41:34,TEMP=16.8,BA=5.48,STAT.A=Abs.,ExtBa=12.83